Regional Weather Roundup
Issued by NWS

Home | Current Version | Previous Version | Graphics & Text | Print | Product List | Glossary On
Versions: 1 2 3 4 5 6 7 8 9 10 11 12 13 14 15 16 17 18 19 20 21 22 23 24 25 26 27 28 29 30 31 32 33 34 35 36 37 38 39 40 41 42 43 44 45 46 47 48 49 50
899
ASUS43 KOAX 110710
RWRNE

WEATHER ROUNDUP FOR NEBRASKA
NATIONAL WEATHER SERVICE OMAHA NE
100 AM CST THU FEB 11 2016

NOTES: SATELLITE DATA IS BEING USED TO AUGMENT CLOUD COVER ABOVE
       12000 FEET.
       "FAIR" INDICATES FEW OR NO CLOUDS BELOW 12,000 FEET WITH NO
       SIGNIFICANT WEATHER AND/OR OBSTRUCTIONS TO VISIBILITY.

  * THESE STATIONS DO NOT REPORT WEATHER SUCH AS RAIN...SNOW OR FOG.

NEZ001>004-019>022-054>056-110800-
NEBRASKA PANHANDLE

CITY           SKY/WX    TMP DP  RH WIND       PRES   REMARKS
SCOTTSBLUFF    CLOUDY    30  24  78 NW6       30.15S WCI  24
ALLIANCE       CLOUDY    24  22  91 W12       30.11F WCI  13
CHADRON        CLEAR     27  23  85 CALM      30.13S
KIMBALL        CLEAR     36  23  59 NW12      30.16S WCI  28
SIDNEY         CLOUDY    34  25  69 W13       30.14F WCI  25
$$

NEZ057>060-069>072-079>082-110800-
SOUTHWEST NEBRASKA

CITY           SKY/WX    TMP DP  RH WIND       PRES   REMARKS
NORTH PLATTE   CLEAR     33  27  78 VRB5      30.14R WCI  29
IMPERIAL       CLOUDY    35  27  72 NW7       30.15S WCI  29
LEXINGTON      CLEAR     29  26  86 NE6       30.15R WCI  23
MCCOOK         CLOUDY    35  28  75 N3        30.14R
OGALLALA       CLOUDY    29  26  85 CALM      30.14S
$$

NEZ005>010-023>029-035>040-094-110800-
NORTH CENTRAL NEBRASKA

CITY           SKY/WX    TMP DP  RH WIND       PRES   REMARKS
VALENTINE      CLOUDY    26  24  92 N9        30.17S WCI  17
AINSWORTH      CLOUDY    28  26  90 N12       30.17R WCI  18
BROKEN BOW     CLOUDY    30  27  88 N12       30.15R WCI  20
O`NEILL        CLOUDY    26  24  93 N3        30.17R
ORD            CLOUDY    30  26  85 N10       30.15R WCI  21
THEDFORD       CLOUDY    31  30  94 N6        30.16R WCI  25
$$

NEZ041-046>049-061>064-073>077-083>087-110800-
SOUTH CENTRAL NEBRASKA

CITY           SKY/WX    TMP DP  RH WIND       PRES   REMARKS
GRAND ISLAND   CLOUDY    27  24  89 NE7       30.16R WCI  19
AURORA         CLOUDY    25  24  94 NE7       30.15S WCI  17
HASTINGS       CLOUDY    28  24  85 N9        30.14R WCI  19
HEBRON         CLEAR     27  24  88 N6        30.15R WCI  21
HOLDREGE       CLEAR     28  26  89 NE7       30.14R WCI  21
KEARNEY *      CLOUDY    27  25  93 N8        30.15S WCI  18
YORK           CLOUDY    23  21  93 NE10      30.16S WCI  12
$$

NEZ011>018-030>034-042>045-110800-
NORTHEAST NEBRASKA

CITY           SKY/WX    TMP DP  RH WIND       PRES   REMARKS
NORFOLK        CLOUDY    22  17  81 N7        30.17S WCI  13
ALBION         CLOUDY    23  19  85 N5        30.18R WCI  17
BLAIR          CLEAR     17  14  87 NE6       30.17S WCI   9
COLUMBUS *     CLOUDY    19  10  68 N5        30.18F WCI  13
FREMONT        CLOUDY    17  13  84 CALM      30.19S
TEKAMAH        CLOUDY    19  13  77 N9        30.21S WCI   8
WAYNE          CLOUDY    18  14  84 NE6       30.21R WCI  10
$$

NEZ050>053-065>068-078-088>093-110800-
SOUTHEAST NEBRASKA

CITY           SKY/WX    TMP DP  RH WIND       PRES   REMARKS
LINCOLN        CLOUDY    20  17  88 N7        30.20R WCI  11
OMAHA EPPLEY   PTCLDY    19  13  77 NE6       30.20S WCI  11
BEATRICE       CLOUDY    26  23  91 NE9       30.16R WCI  16
FALLS CITY     CLEAR     27  21  78 NE9       30.16R WCI  18
NEBRASKA CITY  CLOUDY    24  21  91 NE13      30.17R WCI  12
PLATTSMOUTH    CLOUDY    20  17  86 NE6       30.18S WCI  13
$$

NEZ044-045-051>053-067-110800-
OMAHA AREA

CITY           SKY/WX    TMP DP  RH WIND       PRES   REMARKS
OMAHA EPPLEY   PTCLDY    19  13  77 NE6       30.20S WCI  11
BLAIR          CLEAR     17  14  87 NE6       30.17S WCI   9
FREMONT        CLOUDY    17  13  84 CALM      30.19S
MILLARD        CLEAR     21  16  80 CALM      30.19S
PLATTSMOUTH    CLOUDY    20  17  86 NE6       30.18S WCI  13
WAHOO          FAIR      18  15  88 NE3       30.19S
$$




USA.gov is the U.S. government's official web portal to all federal, state and local government web resources and services.